STARLINK-35549, 66139

Orbit data source: Space-Track

STARLINK-35549, 66139 is a payload satellite owned by SpaceX/Seattle (US) in LEO that was launched on Wed, 22 Oct 2025 UTC via an FALCON 9 launch vehicle from the Air Force Western Test Range (AFWTR). Payload-class satellites include a variety of spacecraft equipped with specific instruments for various scientific and technological missions. These include communications satellites like Starlink; space stations such as the ISS; scientific satellites like the Hubble; Earth observation satellites from companies like Planet Labs, Umbra, and HawkEye 360; GPS; miniature CubeSats for education and research; and military/defense satellites.

Loading next visibility...
Identifier
66139, 2025-237AB
Orbit
LEO
Country
Flag of USUS
Related business
Manufacturer
SpaceX/Seattle
Mission
Operational Commercial Communications
Bus & Motor
STARLINK V2MO, Unknown motor
Mass
575 kg wet, ~530 kg dry
Launch date (UTC)
2025-10-22 (4 months ago)
Launch vehicle
FALCON 9
Launch site
Air Force Western Test Range (AFWTR)
Object type
Payload
Rocket body
Debris
Shape & HBR
Box + 2 Pan, 17.7 m
Radar Cross Section
36.964 m²

Expand to show TLE details & history
Last TLE update: 20 hours ago

TLE from 20 hours ago
0 STARLINK-35549
1 66139U 25237AB  26061.30901396  .00020214  00000-0  69288-3 0  9995
2 66139  53.1594  73.6802 0001153  89.1632 270.9501 15.30193940 21483
Epoch: 2026-03-02T07:24Z
TLE epoch observation values (Epoch: 2026-03-02T07:24:58.806Z)
Latitude
0.00001°
Longitude
162.3309°
Altitude
476.12 km
Speed
7.629 km/s
True Right ascension
04h 54m 43s
True Declination
0° 00' 00"
Sunlit
Object was in daylight at epoch
Visualization orbit readout
Latitude
Unknown
Longitude
Unknown
Altitude
Unknown
Speed
Unknown
Apparent Right ascension
Unknown
Apparent Declination
Unknown
Sunlit
N/A
Visualization observer readout
Local Sidereal Time
07:14:36
Azimuth
Unknown
Elevation
Unknown
Doppler factor
Unknown
Orbital elements
Apogee altitude
476.28 km
Perigee altitude
474.699 km
Semi-major axis
6,853.627 km
Eccentricity
0.00012
Inclination
53.1594°
RAAN
73.6802°
Arg. of periapsis
89.1632°
True anomaly
270.93689°
Mean anomaly
270.9501°
Eccentric anomaly
270.94349°
Mean motion
3.82527 °/min
Orbital period
94.11 mins
BSTAR
0.00069288
Loading maneuver chart data...
Computing Atmospheric mass density...
Loading historical data...
Loading historical data...
Loading historical data...
Loading historical data...
Loading historical data...
Loading historical data...
Loading historical data...

Documentation

Showing up to 5 results
|